Погода в Майкопе

Погода в Майкопе : погода сейчас, прогноз погоды и архив. Всё, что Вы хотите узнать о погоде в Майкопе!

Поиск расширенной информации на нашем сайте:

Другие новости

Новости СМИ2

Главная страница сайта

Новости сайта

02.10.2013

Напоминаем, что на нашем новом сайте вы можете получить высокодетализированные прогнозы погоды по пунктам России, СНГ и мира (включающие важные для авиации метеовеличины, такие как направление и скорость ветра, видимость, явления погоды, количество и форма облачности, нижняя и верхняя граница облачности), а также ознакомиться с разнообразными материалами по авиационной метеорологии и подборкой полезных ссылок на эту тему.

Сайт Метеоцентр.Азия посвящён разработке технологий оптимизации авиаметеорологического обслуживания, включая проектирование и перспективное создание нескольких автоматизированных авиаметеорологических систем:
- система выпуска высокодетальных прогностических карт явлений погоды для нижнего воздушного пространства по России и ближнему зарубежью;
- система верификации прогнозов TAF (выпускаемых синоптиками официальных АМСГ РФ и ближнего зарубежья) и AUTOTAF (выпускаемых сайтом Метеоцентр.Азия) - выявление ошибок, онлайн-сопоставление с фактической погодой METAR, автоматическое внесение коррективов в прогнозы при резком отклонении фактической погоды от прогноза, подсчёт оправдываемости прогнозов по элементам и в целом;
- система обработки, анализа и отображения авиаметеорологической информации для применения провайдерами метеорологической информации.

Рекомендуем: Права станут золотыми стоимость обучения обучение на права.

Погода в Майкопе - сегодня

Время (UTC), дата Ветер
(°,м/с) 
Видим.   Явления Облачность Т
(°С)
Тd
(°С)
f(%) Тe
(°С)
Pmin
(гПа)
dP
(гПа)
Po
(мм)
O2
(г/м3)
Тmin Tmax R s Состояние
почвы
09 26.04.17 040 (СВ) 20000 м    ясно 
+16.6 +0 32 +17  1027.6  -1.1  751  285           
12 26.04.17 030 (СВ) 20000 м    ясно 
+19.3 -1.5 24 +20  1025.8  -1.5  750  282           
15 26.04.17 020 (С) 20000 м    ясно 
+18.2 +0.2 30 +19  1024.7  -1.2  749  283    +19.9       
18 26.04.17 070 (В) 20000 м    ясно 
+12.3 +2.5 51 +12  1024.8  -0.4  749  288           
21 26.04.17 120 (ЮВ) 20000 м    ясно 
+7.6 +1.8 67 +9  1024.5  -0.7  748  293           
00 27.04.17 150 (ЮВ) 20000 м    ясно 
+7.8 +0.8 61 +7  1023.9  -0.6  748  293           
03 27.04.17 200 (Ю) 20000 м    ясно 
+5.6 +0.9 72 +6  1023.8  -0.3  748  295  +4.7        сухая 
06 27.04.17 170 (Ю) 20000 м    ясно 
+15.4 +0.8 37 +17  1023.1  0.2  748  285           
09 27.04.17 320 (СЗ) 20000 м    ясно 
+19.9 +3.9 35 +21  1021.9  -0.7  747  280           
12 27.04.17 340 (С) 20000 м    ясно 
+22.2 -0.3 22 +22  1020.7  -1  746  278           
15 27.04.17 280 (З) 20000 м    ясно 
+21.8 +2.9 29 +22  1019.9  -0.8  746  278    +22.9       
18 27.04.17 050 (СВ) 20000 м    ясно 
+11.5 +4.8 63 +13  1021.6  0.7  746  288           
21 27.04.17 150 (ЮВ) 20000 м    ясно 
+10.8 +4.6 65 +11  1021  -0.6  746  288           
00 28.04.17 150 (ЮВ) 20000 м    ясно 
+9.2 +3.5 67 +9  1020.6  -0.5  746  290           
03 28.04.17 150 (ЮВ) 20000 м    ясно 
+8.4 +3 69 +8  1020.9  0.2  746  291  +8.1        сухая 
06 28.04.17 260 (З) 20000 м    ясно 
+17.5 +6.4 48 +18  1020.1  746  281           
09 28.04.17 300 (СЗ) 20000 м    ясно 
+20.5 +4.5 35 +21  1019.3  -0.5  745  279           
12 28.04.17 300 (СЗ) 20000 м    ясно 
+22.1 +2.5 27 +22  1018.6  -0.6  745  277           
15 28.04.17 320 (СЗ) 20000 м    ясно 
+20.6 +3.1 31 +21  1018.4  -0.3  745  279    +22.3       
18 28.04.17 150 (ЮВ) 20000 м    ясно 
+12.4 +6.3 66 +14  1019.5  0.4  745  286           
21 28.04.17 140 (ЮВ) 20000 м    ясно 
+11.5 +6.2 70 +12  1019  -0.6  745  287           
00 29.04.17 150 (ЮВ) 20000 м    ясно 
+11.2 +4.6 64 +10  1018.5  -0.5  744  287           
03 29.04.17 150 (ЮВ) 20000 м    ясно 
+10.5 +4.1 65 +10  1018.5  744  288  +9.8        сухая 
06 29.04.17 080 (В) 20000 м    ясно 
+19.8 +6 40 +21  1017.3  -0.4  744  278           
09 29.04.17 040 (СВ) 20000 м    ясно 
+25.3 +3.1 24 +25  1016.1  -0.7  743  274           
Время (UTC), дата Ветер
(°,м/с) 
Видим.   Явления Облачность Т
(°С)
Тd
(°С)
f(%) Тe
(°С)
Pmin
(гПа)
dP
(гПа)
Po
(мм)
O2
(г/м3)
Тmin Tmax R s Состояние
почвы

Для получения пояснительной информации подведите курсор к названию столбца.

ПОГОДА в Майкопе - архив

Всё, что Вы хотите узнать о погоде в Майкопе - удобно и подробно!

Выберите нужную дату (начиная с 1 января 2015* года) и нажмите кнопку "Найти".
Будут отображены архивные сводки погоды по пункту Майкоп, начиная с указанной даты.


Отображать данные в формате CSV (для использования в таблицах Excel)


Внимание! Наш архив погоды предназначен исключительно для личного некоммерческого использования в познавательных целях. Если Вам необходимы официальные справки о состоянии погоды (для производственных, юридических, коммерческих и т.п. целей), обращайтесь в органы Росгидромета.

*Примечание: данная дата относится к архиву по метеостанциям СССР (Россия, СНГ, Балтия).
Архив по метеостанциям Зарубежной Европы и Азии (кроме Китая) хранится 10 дней, по другим регионам земного шара (Китай, Африка, Америка, Австралия, Океания) - 1 день.

Майкоп - район местоположения метеостанции


Название, широта, долгота, высота метеостанции:
Майкоп 44.7°ш. 40.1°д. 207 м над ур. моря [Российская Федерация]

Дополнительная информация

В oтличие oт бoльшинства пoгoдных сайтoв мы публикуем пoдрoбную метеoинфoрмацию в детальнoм прoфессиoнальнoм фoрмате.

Характеристики температуры и влажнoсти вoздуха измеряются на высoте 2 м в тени вдали oт зданий и деревьев.
Скoрoсть ветра измеряется на высoте 10 м (на урoвне рoста челoвека скoрoсть ветра ниже в 1.5-2 раза). Если метеoстанция нахoдится в гoрoде или в лесу, тo скoрoсть ветра занижена на 2-4 м/с пo сравнению с oткрытым местoм. Скoрoсть ветра над акватoриями крупных рек и oзёр, а также на вершинах хoлмoв на 2-5 м/с выше, чем в oбычных услoвиях.
Атмoсфернoе давление в разных тoчках местнoсти мoжет значительнo oтличаться oт давления на метеoстанции, в зависимoсти oт услoвий рельефа (при пoдъёме на 10 м давление пoнижается примернo на 1 мм рт.ст.).